Hollywood, FL

1:11 AM EDT on October 24, 2019 (GMT -0400)
North Perry

Weather History for KHWO - August, 2019

Change the Weather History Date:

Friday, August 2, 2019

  Actual Average (KFLL) Record (KFLL)
Temperature  
Mean Temperature 82 °F 85 °F  
Max Temperature 91 °F 91 °F 96 °F (1944)
Min Temperature 75 °F 79 °F 68 °F (1923)
Degree Days  
Heating Degree Days 0 0  
Month to date heating degree days 0  
Since 1 June heating degree days 0  
Since 1 July heating degree days 0  
Cooling Degree Days 18 20  
Month to date cooling degree days 40  
Year to date cooling degree days 2599  
Since 1 June cooling degree days 1181  
Growing Degree Days 32 (Base 50)    
Moisture  
Dew Point 74 °F    
Average Humidity 79    
Maximum Humidity 94    
Minimum Humidity 55    
Precipitation  
Precipitation 1.07 in 0.21 in 2.96 in (2001)
Month to date precipitation 0.42  
Year to date precipitation 34.05  
Snow  
Snow 0.00 in - - ()
Month to date snowfall  
Since 1 June snowfall  
Since 1 July snowfall  
Snow Depth -    
Sea Level Pressure  
Sea Level Pressure 29.96 in    
Wind  
Wind Speed 8 mph (SE)    
Max Wind Speed 20 mph    
Max Gust Speed 26 mph    
Visibility 9 miles    
Events Rain , Thunderstorm    
T = Trace of Precipitation, MM = Missing Value Source: NWS Daily Summary

Daily Weather History Graph

Daily Weather History Graph

Search for Another Location

Airport or City:

Astronomy

Aug. 02, 2019 Rise Set
Actual Time 6:47 AM EDT 8:06 PM EDT
Civil Twilight 6:22 AM EDT 8:31 PM EDT
Nautical Twilight 5:53 AM EDT 9:00 PM EDT
Astronomical Twilight 5:22 AM EDT 9:31 PM EDT
Moon 8:19 AM EDT (8/2) 9:43 PM EDT (8/2)
Length of Visible Light 14h 08m
Length of Day
13h 19m
Waxing Crescent, 4% of the Moon is Illuminated
Aug 2
Waxing Crescent
Aug 7
First Quarter
Aug 15
Full
Aug 23
Last Quarter
Aug 30
New

Hourly Weather History & Observations

Time (EDT) Temp. Heat Index Dew Point Humidity Pressure Visibility Wind Dir Wind Speed Gust Speed Precip Events Conditions
12:33 AM 81.0 °F 86.7 °F 75.0 °F 82% 29.98 in 10.0 mi ENE 6.9 mph - 0.00 in Rain Light Rain
12:41 AM 81.0 °F 86.7 °F 75.0 °F 82% 29.99 in 10.0 mi ENE 5.8 mph - 0.00 in   Mostly Cloudy
12:53 AM 80.1 °F 84.5 °F 73.9 °F 81% 29.99 in 10.0 mi ENE 4.6 mph - 0.00 in   Mostly Cloudy
1:53 AM 82.9 °F 90.2 °F 75.0 °F 77% 29.97 in 10.0 mi East 8.1 mph - N/A   Mostly Cloudy
2:53 AM 82.0 °F 88.6 °F 75.0 °F 79% 29.96 in 10.0 mi ESE 8.1 mph - 0.00 in   Partly Cloudy
3:41 AM 77.0 °F - 73.0 °F 88% 29.96 in 10.0 mi SSW 13.8 mph - 0.00 in Rain Light Rain
3:53 AM 75.9 °F - 73.0 °F 91% 29.99 in 4.0 mi South 18.4 mph 23.0 mph 0.22 in Rain Heavy Rain
3:58 AM 75.9 °F - 73.0 °F 91% 29.99 in 2.5 mi SE 18.4 mph - 0.30 in Rain Heavy Rain
4:01 AM 75.9 °F - 73.0 °F 91% 29.98 in 2.0 mi ESE 6.9 mph - 0.42 in Rain , Thunderstorm Heavy Thunderstorms and Rain
4:11 AM 75.9 °F - 73.0 °F 91% 29.97 in 5.0 mi South 5.8 mph - 0.55 in Rain , Thunderstorm Heavy Thunderstorms and Rain
4:16 AM 75.9 °F - 73.0 °F 91% 29.97 in 7.0 mi SSE 8.1 mph - 0.55 in Rain , Thunderstorm Rain
4:25 AM 75.9 °F - 73.0 °F 91% 29.96 in 10.0 mi SE 5.8 mph - 0.57 in Rain Rain
4:53 AM 75.9 °F - 72.0 °F 87% 29.96 in 10.0 mi Calm Calm - 0.61 in Rain Rain
5:53 AM 75.9 °F - 73.0 °F 91% 29.95 in 10.0 mi Calm Calm - 0.07 in   Partly Cloudy
6:53 AM 75.9 °F - 73.9 °F 94% 29.96 in 10.0 mi Calm Calm - 0.01 in Rain Light Rain
7:53 AM 78.1 °F - 75.0 °F 90% 29.97 in 10.0 mi ESE 4.6 mph - 0.01 in   Scattered Clouds
8:53 AM 79.0 °F - 75.9 °F 90% 29.96 in 10.0 mi ESE 4.6 mph - 0.00 in   Scattered Clouds
9:53 AM 82.9 °F 90.2 °F 75.0 °F 77% 29.96 in 10.0 mi SSE 6.9 mph - N/A   Scattered Clouds
10:19 AM 82.9 °F 89.4 °F 73.9 °F 74% 29.96 in 10.0 mi SE 9.2 mph - N/A   Mostly Cloudy
10:40 AM 84.0 °F 91.9 °F 75.0 °F 74% 29.96 in 10.0 mi SSE 9.2 mph - N/A   Scattered Clouds
10:53 AM 84.9 °F 93.3 °F 75.0 °F 72% 29.96 in 10.0 mi SSE 5.8 mph - N/A   Partly Cloudy
11:53 AM 86.0 °F 95.1 °F 75.0 °F 70% 29.97 in 10.0 mi SE 9.2 mph - N/A   Scattered Clouds
12:06 PM 86.0 °F 93.8 °F 73.9 °F 67% 29.97 in 10.0 mi SE 6.9 mph - N/A   Mostly Cloudy
12:22 PM 87.1 °F 96.3 °F 75.0 °F 67% 29.97 in 10.0 mi SE 9.2 mph - N/A   Scattered Clouds
12:53 PM 88.0 °F 95.6 °F 73.0 °F 61% 29.97 in 10.0 mi SE 8.1 mph - N/A   Scattered Clouds
1:53 PM 90.0 °F 96.9 °F 72.0 °F 55% 29.95 in 10.0 mi SW 8.1 mph - N/A   Partly Cloudy
2:53 PM 89.1 °F 97.0 °F 73.0 °F 59% 29.93 in 10.0 mi South 10.4 mph - N/A   Mostly Cloudy
3:31 PM 82.9 °F 88.8 °F 73.0 °F 72% 29.94 in 10.0 mi West 17.3 mph 23.0 mph N/A Thunderstorm Mostly Cloudy
3:39 PM 81.0 °F 86.2 °F 73.9 °F 79% 29.93 in 10.0 mi West 19.6 mph 26.5 mph N/A Thunderstorm Overcast
3:40 PM 81.0 °F 86.2 °F 73.9 °F 79% 29.93 in 10.0 mi West 19.6 mph 26.5 mph 0.00 in Rain Light Rain
3:53 PM 79.0 °F - 75.0 °F 88% 29.94 in 6.0 mi West 16.1 mph 24.2 mph 0.07 in Rain Heavy Rain
4:53 PM 79.0 °F - 72.0 °F 79% 29.92 in 10.0 mi West 6.9 mph - 0.08 in Rain Light Rain
5:53 PM 82.0 °F 87.4 °F 73.0 °F 74% 29.93 in 10.0 mi Calm Calm - 0.00 in   Partly Cloudy
6:53 PM 82.9 °F 88.8 °F 73.0 °F 72% 29.94 in 10.0 mi North 3.5 mph - N/A   Clear
7:53 PM 82.0 °F 87.4 °F 73.0 °F 74% 29.94 in 10.0 mi NE 3.5 mph - N/A   Clear
8:53 PM 81.0 °F 85.8 °F 73.0 °F 77% 29.96 in 10.0 mi Calm Calm - N/A   Partly Cloudy
9:53 PM 81.0 °F 85.8 °F 73.0 °F 77% 29.97 in 10.0 mi Calm Calm - N/A   Clear
10:53 PM 81.0 °F 85.8 °F 73.0 °F 77% 29.98 in 10.0 mi Calm Calm - N/A   Scattered Clouds
11:53 PM 80.1 °F 84.5 °F 73.9 °F 81% 29.97 in 10.0 mi ESE 4.6 mph - N/A   Clear